Location: Alincthun
(50.7310°N, 1.8022°E)
Time: 00:39:37
(UTC+00:00)

Cosmos-2242 - Pass Details

Date: 17 February 2020
Orbit: 591 x 617 km, 82.5° (Epoch: 04 April)

Event Time Altitude Azimuth Distance (km) Brightness Sun altitude
Exits shadow 04:28:35 32° 355° (N) 1,048 4.2 -24.9°
Drops below altitude 10° 04:30:59 10° 5° (N) 1,951 5.8 -24.5°
Sets 04:33:12 0° 9° (N) 2,854 6.7 -24.2°
